Location: Barruelo
(41.2448°N, 3.8231°W)
Time: 04:15:06
(UTC+00:00)

Cosmos 783 Rocket - Pass Details

Date: 11 December 2025
Orbit: 753 x 776 km, 74.1° (Epoch: 13 January)

Event Time Altitude Azimuth Distance (km) Brightness Sun altitude
Rises 17:43:46 0° 341° (NNW) 3,265 7.7 -10.5°
Reaches altitude 10° 17:46:10 10° 343° (NNW) 2,333 7.0 -11.0°
Maximum altitude 17:51:29 80° 70° (ENE) 791 4.5 -11.9°
Drops below altitude 10° 17:56:45 10° 158° (SSE) 2,312 7.0 -12.8°
Sets 17:59:07 0° 159° (SSE) 3,232 7.7 -13.2°
